Location: Observatoire
(46.1952°N, 5.3391°E)
Time: 22:51:04
(UTC+01:00)

Tiros 1 despin weight - Pass Details

Date: 26 February 2026
Orbit: 556 x 593 km, 48.2° (Epoch: 7 March)

Event Time Altitude Azimuth Distance (km) Brightness Sun altitude
Rises 13:24:54 0° 248° (WSW) 2,759 ? 34.7°
Reaches altitude 10° 13:27:10 10° 247° (WSW) 1,857 ? 34.6°
Maximum altitude 13:31:25 81° 160° (SSE) 573 ? 34.5°
Drops below altitude 10° 13:35:37 10° 74° (ENE) 1,844 ? 34.3°
Sets 13:37:52 0° 73° (ENE) 2,738 ? 34.2°
